Current weather by "City, St" or "zip code"  
 
Advertise Here

Current Conditions: Indianapolis, Eagle Creek Airpark, IN

Overcast


36.0 F

Last Updated on Jan 26 2021, 9:53 am EST
Humidity: 97%
Wind Speed: mph
Barometer 29.71 in
Dewpoint: 35.1 F
Visibility: 7.00 mi
Precip: --
Heat Index: NA
Wind Chill: NA
Current conditions at:

Indianapolis, Eagle Creek Airpark, IN (KEYE)

Lat: 39.825 Lon: 86.29583

Local Radar Image active severe weather and emergency alerts image image weather storm and storm spotter reports image weather observation monitoring service image
Local
Radar
Active
Alerts
Storm Reports Obs
Monitoring

Sign-up For Email & Text Message Weather Alert Notification Services


Advertise Here

Observation History for Indianapolis, Eagle Creek Airpark, IN


Time Wind
(mph)
Vis
(mi)
Weather Precip (in) Temperature (F) Relative
Humidity
Wind
Chill
(F)
Heat
Index
(F)
Pressure
Air Dwpt altimeter
(in)
sea level
(mb)
Rmks
9:53 am EST 7.00 Overcast -- 36.0 35.1 97% NA NA 29.71 1006.8
8:53 am EST W 8.1 7.00 Overcast -- 36.0 34.0 93% 30 NA 29.68 1005.5
7:53 am EST SW 5.8 5.00 Fog/Mist -- 35.0 34.0 96% 30 NA 29.66 1004.9
6:53 am EST SW 4.6 3.00 Fog/Mist -- 35.0 34.0 96% 31 NA 29.65 1004.5
5:53 am EST S 5.8 3.00 Fog/Mist -- 34.0 33.1 97% 29 NA 29.63 1003.8
4:53 am EST S 3.5 3.00 Fog/Mist -- 34.0 33.1 97% NA NA 29.62 1003.5
3:53 am EST SE 3.5 2.00 Fog/Mist -- 33.0 32.0 96% NA NA 29.62 1003.6
2:53 am EST N 0.0 1.75 Fog/Mist -- 33.0 33.1 100% NA NA 29.62 1003.8
1:53 am EST E 6.9 3.00 Fog/Mist -- 33.0 32.0 96% 27 NA 29.61 1003.4
12:53 am EST E 8.1 2.00 Fog/Mist -- 33.0 32.0 96% 26 NA 29.64 1004.3
9:53 pm EST E 11.5 G 23.0 2.50 Unknown Precip Fog/Mist 00.01 32.0 30.9 96% 23 NA 29.69 1006.2
8:53 pm EST E 15.0 G 21.9 3.00 Fog/Mist -- 32.0 30.0 92% 22 NA 29.72 1007.1
7:53 pm EST E 15.0 G 24.2 3.00 Fog/Mist -- 32.0 30.0 92% 22 NA 29.73 1007.6
6:53 pm EST NE 15.0 G 21.9 3.00 Fog/Mist -- 32.0 30.0 92% 22 NA 29.76 1008.4
5:53 pm EST NULL NULL -- 33.0 30.0 89% NA NA 29.77 1008.7
4:53 pm EST E 11.5 G 19.6 8.00 Overcast -- 33.0 28.9 85% 24 NA 29.77 1008.9
3:53 pm EST E 10.4 9.00 Overcast -- 33.0 30.0 89% 25 NA 29.77 1008.9
2:53 pm EST E 11.5 8.00 Overcast -- 32.0 28.9 88% 23 NA 29.78 1009.3
1:53 pm EST 6.00 Fog/Mist -- 32.0 28.9 88% NA NA 29.85 1011.6
12:53 pm EST E 6.9 4.00 Unknown Precip Fog/Mist 00.06 31.0 28.0 89% 24 NA 29.92 1013.9
11:53 am EST E 8.1 2.50 Light Snow Fog/Mist 00.07 31.0 28.0 89% 24 NA 29.98 1016.1
10:53 am EST E 10.4 6.00 Fog/Mist Trace 30.0 27.0 88% 21 NA 29.96 1015.4

Regional Weather Observation


Crawfordsville Municipal Airport, IN (KCFJ)

Fog/Mist
32.0 F

Frankfort Municipal Airport, IN (KFKR)

Unknown Precip Fog/Mist
32.0 F

Indianapolis, Eagle Creek Airpark, IN (KEYE)

Overcast
36.0 F

Indianapolis International Airport, IN (KIND)

Overcast
37.0 F

Putnam County Regional Airport, IN (KGPC)

Drizzle Fog/Mist
35.0 F

Putnam County Regional Airport, IN (KGPC)

Drizzle Fog/Mist
35.0 F